Jackson, MI

9:29 PM EDT on July 22, 2019 (GMT -0400)
Jackson County-Reynolds

Weather History for KJXN - May, 2019

Change the Weather History Date:

Wednesday, May 1, 2019

  Actual Average Record
Temperature  
Mean Temperature 56 °F 53 °F  
Max Temperature 67 °F 65 °F 84 °F (1957)
Min Temperature 44 °F 42 °F 23 °F (1978)
Degree Days  
Heating Degree Days 9 12  
Month to date heating degree days 9 12  
Since 1 July heating degree days 6406 6358  
Cooling Degree Days 0 0  
Month to date cooling degree days 0 0  
Year to date cooling degree days 0 6  
Growing Degree Days 5 (Base 50)    
Moisture  
Dew Point 52 °F    
Average Humidity 87    
Maximum Humidity 100    
Minimum Humidity 73    
Precipitation  
Precipitation 0.06 in 0.10 in 0.87 in (1983)
Month to date precipitation 0.06 0.10  
Year to date precipitation 8.30 7.39  
Sea Level Pressure  
Sea Level Pressure 29.99 in    
Wind  
Wind Speed 13 mph (South)    
Max Wind Speed 29 mph    
Max Gust Speed 39 mph    
Visibility 9 miles    
Events Rain    
T = Trace of Precipitation, MM = Missing Value Source: NWS Daily Summary

Daily Weather History Graph

Daily Weather History Graph

Search for Another Location

Airport or City:

Astronomy

May. 01, 2019 Rise Set
Actual Time 6:33 AM EDT 8:37 PM EDT
Civil Twilight 6:03 AM EDT 9:07 PM EDT
Nautical Twilight 5:25 AM EDT 9:45 PM EDT
Astronomical Twilight 4:44 AM EDT 10:26 PM EDT
Moon 5:23 AM EDT (5/1) 5:19 PM EDT (5/1)
Length of Visible Light 15h 04m
Length of Day
14h 03m
Waning Crescent, 11% of the Moon is Illuminated
May 1
Waning Crescent
May 4
New
May 11
First Quarter
May 18
Full
May 26
Last Quarter

Hourly Weather History & Observations

Time (EDT) Temp. Windchill Dew Point Humidity Pressure Visibility Wind Dir Wind Speed Gust Speed Precip Events Conditions
12:56 AM 44.1 °F 36.8 °F 43.0 °F 96% 30.14 in 10.0 mi East 16.1 mph 24.2 mph 0.06 in   Overcast
1:56 AM 44.1 °F 39.0 °F 43.0 °F 96% 30.12 in 7.0 mi East 9.2 mph - 0.00 in Rain Light Rain
2:56 AM 45.0 °F 38.5 °F 45.0 °F 100% 30.05 in 8.0 mi East 13.8 mph 24.2 mph 0.06 in Rain Light Rain
3:07 AM 45.0 °F 39.7 °F 45.0 °F 100% 30.04 in 10.0 mi East 10.4 mph 23.0 mph 0.00 in   Overcast
3:56 AM 46.9 °F - 46.0 °F 97% 30.06 in 10.0 mi East 11.5 mph 20.7 mph 0.00 in   Overcast
4:48 AM 46.9 °F - 45.0 °F 93% 30.02 in 10.0 mi East 15.0 mph 24.2 mph N/A   Mostly Cloudy
4:56 AM 46.9 °F - 45.0 °F 93% 30.03 in 10.0 mi East 15.0 mph 24.2 mph N/A   Mostly Cloudy
5:04 AM 46.9 °F - 45.0 °F 93% 30.01 in 10.0 mi East 13.8 mph 24.2 mph N/A   Overcast
5:19 AM 46.9 °F - 45.0 °F 93% 30.00 in 10.0 mi East 17.3 mph 25.3 mph N/A   Overcast
5:56 AM 46.9 °F - 45.0 °F 93% 30.00 in 10.0 mi East 12.7 mph 21.9 mph N/A   Overcast
6:56 AM 46.0 °F 40.2 °F 45.0 °F 96% 29.99 in 9.0 mi East 12.7 mph 19.6 mph N/A   Overcast
7:38 AM 46.0 °F 40.2 °F 46.0 °F 100% 29.95 in 4.0 mi ESE 12.7 mph 23.0 mph N/A   Overcast
7:56 AM 46.9 °F - 46.0 °F 97% 29.97 in 4.0 mi East 11.5 mph 19.6 mph N/A   Overcast
8:56 AM 46.9 °F - 46.9 °F 100% 29.93 in 4.0 mi East 11.5 mph 20.7 mph N/A   Overcast
9:42 AM 50.0 °F - 48.9 °F 96% 29.89 in 6.0 mi ESE 11.5 mph - N/A   Mostly Cloudy
9:56 AM 51.1 °F - 50.0 °F 96% 29.90 in 6.0 mi SE 12.7 mph - N/A   Mostly Cloudy
10:09 AM 54.0 °F - 51.1 °F 90% 29.89 in 8.0 mi SSE 10.4 mph 18.4 mph N/A   Partly Cloudy
10:56 AM 57.9 °F - 54.0 °F 87% 29.89 in 10.0 mi SSE 17.3 mph 21.9 mph N/A   Mostly Cloudy
11:11 AM 59.0 °F - 54.0 °F 83% 29.89 in 10.0 mi SSE 11.5 mph 21.9 mph N/A   Overcast
11:52 AM 64.4 °F - 57.2 °F 77% 29.90 in 10.0 mi SSW 20.7 mph 36.8 mph N/A   Mostly Cloudy
11:56 AM 64.0 °F - 57.9 °F 80% 29.91 in 10.0 mi SSW 23.0 mph 36.8 mph N/A   Mostly Cloudy
12:12 PM 64.0 °F - 57.9 °F 80% 29.90 in 10.0 mi SSW 19.6 mph 32.2 mph N/A   Overcast
12:56 PM 64.9 °F - 59.0 °F 81% 29.93 in 10.0 mi SW 17.3 mph 32.2 mph N/A   Overcast
1:56 PM 64.9 °F - 59.0 °F 81% 29.94 in 10.0 mi SSW 19.6 mph 27.6 mph N/A   Overcast
2:10 PM 64.0 °F - 59.0 °F 84% 29.93 in 10.0 mi SSW 15.0 mph 25.3 mph N/A   Overcast
2:37 PM 64.9 °F - 59.0 °F 81% 29.94 in 10.0 mi SW 12.7 mph 26.5 mph N/A   Mostly Cloudy
2:56 PM 64.9 °F - 59.0 °F 81% 29.95 in 10.0 mi SSW 18.4 mph 28.8 mph N/A   Overcast
3:56 PM 64.9 °F - 57.9 °F 78% 29.97 in 10.0 mi SW 18.4 mph 26.5 mph N/A   Overcast
4:39 PM 66.0 °F - 57.9 °F 75% 29.97 in 10.0 mi SW 17.3 mph 32.2 mph N/A   Overcast
4:56 PM 66.9 °F - 59.0 °F 76% 29.97 in 10.0 mi WSW 15.0 mph 26.5 mph N/A   Overcast
5:56 PM 66.0 °F - 57.9 °F 75% 29.99 in 10.0 mi WSW 18.4 mph 27.6 mph N/A   Partly Cloudy
6:26 PM 64.9 °F - 57.0 °F 75% 30.00 in 10.0 mi WSW 13.8 mph 29.9 mph N/A   Mostly Cloudy
6:56 PM 64.9 °F - 55.9 °F 73% 30.01 in 10.0 mi WSW 16.1 mph 26.5 mph N/A   Mostly Cloudy
7:29 PM 63.0 °F - 55.9 °F 78% 30.02 in 10.0 mi WSW 6.9 mph 19.6 mph N/A   Scattered Clouds
7:56 PM 60.1 °F - 55.0 °F 83% 30.04 in 10.0 mi West 10.4 mph - N/A   Scattered Clouds
8:46 PM 57.0 °F - 53.1 °F 87% 30.05 in 10.0 mi West 6.9 mph - N/A   Mostly Cloudy
8:56 PM 57.0 °F - 53.1 °F 87% 30.06 in 10.0 mi West 6.9 mph - N/A   Mostly Cloudy
9:56 PM 54.0 °F - 52.0 °F 93% 30.08 in 10.0 mi West 9.2 mph - N/A   Overcast
10:56 PM 54.0 °F - 51.1 °F 90% 30.09 in 10.0 mi West 3.5 mph - N/A   Overcast
11:56 PM 52.0 °F - 48.9 °F 89% 30.09 in 10.0 mi WNW 6.9 mph - N/A   Overcast